Location: B?dimalle
(17.1788°N, 80.5377°E)
Time: 10:56:44
(UTC+00:00)

Tiros 1 despin weight - Pass Details

Date: 25 February 2026
Orbit: 556 x 593 km, 48.2° (Epoch: 10 March)

Event Time Altitude Azimuth Distance (km) Brightness Sun altitude
Rises 05:49:56 0° 255° (WSW) 2,777 ? 59.7°
Reaches altitude 10° 05:52:48 10° 274° (W) 1,872 ? 60.1°
Maximum altitude 05:55:45 18° 318° (NW) 1,422 ? 60.4°
Drops below altitude 10° 05:58:41 10° 2° (N) 1,856 ? 60.7°
Sets 06:01:32 0° 21° (NNE) 2,745 ? 61.1°
